| time (UTC) | temp F | wind direction | speed MPH | gust MPH | rain 1hr in | rain 24hr in | rain mn in | humidity % | barometer mb |
| 20260504192004 | 71 | 20 | 3.0 | 3.0 | 0.00 | 0.00 | 0.00 | 41 | 1011.2 |
| 20260504191504 | 71 | 20 | 3.0 | 6.0 | 0.00 | 0.00 | 0.00 | 41 | 1011.4 |
| 20260504191004 | 71 | 317 | 3.0 | 6.0 | 0.00 | 0.00 | 0.00 | 41 | 1011.4 |
| 20260504185004 | 73 | 319 | 5.0 | 8.0 | 0.00 | 0.00 | 0.00 | 40 | 1011.4 |
| 20260504184503 | 72 | 357 | 2.0 | 9.0 | 0.00 | 0.00 | 0.00 | 41 | 1011.5 |
| 20260504184004 | 72 | 348 | 3.0 | 9.0 | 0.00 | 0.00 | 0.00 | 41 | 1011.5 |
| 20260504183504 | 72 | 348 | 3.0 | 9.0 | 0.00 | 0.00 | 0.00 | 41 | 1011.5 |
| 20260504183003 | 72 | 348 | 3.0 | 9.0 | 0.00 | 0.00 | 0.00 | 41 | 1011.7 |
| 20260504182003 | 71 | 123 | 5.0 | 7.0 | 0.00 | 0.00 | 0.00 | 37 | 1011.7 |
| 20260504181003 | 72 | 308 | 5.0 | 10.0 | 0.00 | 0.00 | 0.00 | 39 | 1011.7 |
| 20260504180504 | 71 | 286 | 3.0 | 10.0 | 0.00 | 0.00 | 0.00 | 40 | 1011.7 |
| 20260504180004 | 70 | 309 | 3.0 | 6.0 | 0.00 | 0.00 | 0.00 | 39 | 1011.8 |
| 20260504175505 | 70 | 27 | 5.0 | 6.0 | 0.00 | 0.00 | 0.00 | 41 | 1011.8 |
| 20260504175004 | 69 | 291 | 5.0 | 6.0 | 0.00 | 0.00 | 0.00 | 43 | 1011.8 |
| 20260504174004 | 69 | 303 | 5.0 | 8.0 | 0.00 | 0.00 | 0.00 | 44 | 1011.9 |
| 20260504173004 | 69 | 190 | 3.0 | 15.0 | 0.00 | 0.00 | 0.00 | 41 | 1012.0 |
| 20260504172503 | 69 | 330 | 3.0 | 8.0 | 0.00 | 0.00 | 0.00 | 43 | 1012.0 |
| 20260504171506 | 68 | 301 | 3.0 | 6.0 | 0.00 | 0.00 | 0.00 | 44 | 1012.0 |
| 20260504171004 | 68 | 214 | 3.0 | 9.0 | 0.00 | 0.00 | 0.00 | 44 | 1012.0 |
| 20260504170504 | 68 | 253 | 3.0 | 7.0 | 0.00 | 0.00 | 0.00 | 43 | 1012.0 |
| 20260504151004 | 54 | 146 | 0.0 | 0.0 | 0.00 | 0.00 | 0.00 | 75 | 1012.4 |
| 20260504150506 | 54 | 146 | 0.0 | 0.0 | 0.00 | 0.00 | 0.00 | 75 | 1012.4 |
| 20260504141006 | 43 | 25 | 0.0 | 0.0 | 0.00 | 0.00 | 0.00 | 90 | 1012.2 |
| 20260504130505 | 41 | 0 | 0.0 | 0.0 | 0.00 | 0.00 | 0.00 | 88 | 1011.9 |
| 20260504110504 | 45 | 150 | 0.0 | 0.0 | 0.00 | 0.00 | 0.00 | 81 | 1012.0 |
| 20260504100504 | 47 | 102 | 0.0 | 0.0 | 0.00 | 0.00 | 0.00 | 77 | 1011.9 |
| 20260504082004 | 54 | 0 | 1.0 | 0.0 | 0.00 | 0.00 | 0.00 | 67 | 1012.0 |
| 20260504081505 | 55 | 359 | 1.0 | 2.0 | 0.00 | 0.00 | 0.00 | 66 | 1012.0 |
| 20260504081006 | 56 | 359 | 1.0 | 3.0 | 0.00 | 0.00 | 0.00 | 65 | 1012.0 |
| 20260504080505 | 56 | 357 | 2.0 | 3.0 | 0.00 | 0.00 | 0.00 | 64 | 1012.0 |
| 20260504050503 | 62 | 327 | 3.0 | 10.0 | 0.00 | 0.00 | 0.00 | 52 | 1011.8 |
| 20260504050005 | 62 | 344 | 3.0 | 10.0 | 0.00 | 0.00 | 0.00 | 51 | 1011.7 |
| 20260504045504 | 62 | 14 | 5.0 | 5.0 | 0.00 | 0.00 | 0.00 | 50 | 1011.7 |
| 20260504045004 | 62 | 14 | 5.0 | 5.0 | 0.00 | 0.00 | 0.00 | 50 | 1011.7 |
| 20260504044004 | 62 | 10 | 5.0 | 10.0 | 0.00 | 0.00 | 0.00 | 50 | 1011.7 |
| 20260504043504 | 62 | 349 | 6.0 | 10.0 | 0.00 | 0.00 | 0.00 | 49 | 1011.7 |
| 20260504043004 | 63 | 357 | 6.0 | 10.0 | 0.00 | 0.00 | 0.00 | 48 | 1011.6 |
| 20260504042504 | 63 | 343 | 5.0 | 12.0 | 0.00 | 0.00 | 0.00 | 48 | 1011.6 |
| 20260504042005 | 63 | 2 | 5.0 | 10.0 | 0.00 | 0.00 | 0.00 | 49 | 1011.6 |
| 20260504041504 | 63 | 339 | 6.0 | 9.0 | 0.00 | 0.00 | 0.00 | 49 | 1011.4 |
| 20260504041004 | 64 | 347 | 6.0 | 9.0 | 0.00 | 0.00 | 0.00 | 48 | 1011.4 |
| 20260504040504 | 65 | 324 | 6.0 | 13.0 | 0.00 | 0.00 | 0.00 | 46 | 1011.4 |
| 20260504040005 | 65 | 330 | 6.0 | 10.0 | 0.00 | 0.00 | 0.00 | 44 | 1011.5 |
| 20260504035504 | 65 | 354 | 6.0 | 9.0 | 0.00 | 0.00 | 0.00 | 44 | 1011.5 |
| 20260504035006 | 65 | 0 | 6.0 | 14.0 | 0.00 | 0.00 | 0.00 | 44 | 1011.5 |
| 20260504034503 | 65 | 17 | 6.0 | 15.0 | 0.00 | 0.00 | 0.00 | 45 | 1011.7 |
| 20260504034003 | 64 | 0 | 0.0 | 6.0 | 0.00 | 0.00 | 0.00 | 47 | 1011.7 |
| 20260504033504 | 64 | 16 | 9.0 | 6.0 | 0.00 | 0.00 | 0.00 | 47 | 1011.7 |
| 20260504033004 | 64 | 16 | 9.0 | 6.0 | 0.00 | 0.00 | 0.00 | 47 | 1011.2 |
| 20260504032505 | 64 | 16 | 9.0 | 15.0 | 0.00 | 0.00 | 0.00 | 47 | 1011.2 |
| 20260504032004 | 64 | 25 | 9.0 | 21.0 | 0.00 | 0.00 | 0.00 | 47 | 1011.2 |
| 20260504031003 | 64 | 34 | 8.0 | 14.0 | 0.00 | 0.00 | 0.00 | 48 | 1011.4 |
| 20260504030504 | 64 | 7 | 6.0 | 17.0 | 0.00 | 0.00 | 0.00 | 48 | 1011.4 |
| 20260504030004 | 64 | 10 | 6.0 | 13.0 | 0.00 | 0.00 | 0.00 | 49 | 1011.8 |
| 20260504024505 | 64 | 29 | 3.0 | 9.0 | 0.00 | 0.02 | 0.00 | 49 | 1011.9 |
| 20260504024003 | 64 | 13 | 3.0 | 7.0 | 0.00 | 0.02 | 0.00 | 51 | 1011.9 |
| 20260504023506 | 64 | 354 | 3.0 | 6.0 | 0.00 | 0.02 | 0.00 | 52 | 1011.9 |
| 20260504023004 | 64 | 322 | 3.0 | 7.0 | 0.00 | 0.02 | 0.00 | 53 | 1011.7 |
| 20260504022505 | 65 | 329 | 3.0 | 5.0 | 0.00 | 0.02 | 0.00 | 52 | 1011.7 |
| 20260504022004 | 65 | 324 | 3.0 | 8.0 | 0.00 | 0.02 | 0.00 | 52 | 1011.7 |
| 20260504021504 | 65 | 343 | 5.0 | 7.0 | 0.00 | 0.02 | 0.00 | 52 | 1011.6 |
| 20260504021005 | 65 | 344 | 5.0 | 7.0 | 0.00 | 0.02 | 0.00 | 52 | 1011.6 |
| 20260504020505 | 65 | 334 | 3.0 | 8.0 | 0.00 | 0.02 | 0.00 | 52 | 1011.6 |
| 20260504015504 | 65 | 355 | 5.0 | 7.0 | 0.00 | 0.02 | 0.00 | 52 | 1011.6 |
| 20260504015005 | 65 | 337 | 5.0 | 6.0 | 0.00 | 0.02 | 0.00 | 52 | 1011.6 |
| 20260504014503 | 65 | 338 | 5.0 | 7.0 | 0.00 | 0.02 | 0.00 | 53 | 1011.5 |
| 20260504014004 | 65 | 348 | 5.0 | 8.0 | 0.00 | 0.02 | 0.00 | 53 | 1011.5 |
| 20260504013007 | 66 | 324 | 5.0 | 5.0 | 0.00 | 0.02 | 0.00 | 48 | 1011.5 |
| 20260504012504 | 66 | 324 | 5.0 | 5.0 | 0.00 | 0.02 | 0.00 | 48 | 1011.5 |
| 20260504012005 | 66 | 324 | 5.0 | 5.0 | 0.00 | 0.02 | 0.00 | 48 | 1011.5 |
| 20260504011504 | 67 | 327 | 5.0 | 7.0 | 0.00 | 0.02 | 0.00 | 48 | 1011.5 |
| 20260504011004 | 67 | 349 | 5.0 | 7.0 | 0.00 | 0.02 | 0.00 | 48 | 1011.5 |
| 20260504010004 | 67 | 338 | 5.0 | 6.0 | 0.00 | 0.02 | 0.00 | 48 | 1011.6 |
| 20260504005506 | 67 | 330 | 2.0 | 8.0 | 0.00 | 0.02 | 0.00 | 48 | 1011.6 |
| 20260504004504 | 67 | 344 | 5.0 | 5.0 | 0.00 | 0.02 | 0.00 | 48 | 1011.8 |
| 20260504004005 | 68 | 327 | 5.0 | 8.0 | 0.00 | 0.02 | 0.00 | 48 | 1011.8 |
| 20260504003504 | 68 | 319 | 2.0 | 8.0 | 0.00 | 0.02 | 0.00 | 50 | 1011.8 |
| 20260504002503 | 67 | 0 | 1.0 | 5.0 | 0.00 | 0.02 | 0.00 | 48 | 1011.7 |
| 20260504002004 | 67 | 182 | 2.0 | 5.0 | 0.00 | 0.02 | 0.00 | 48 | 1011.7 |
| 20260504001004 | 67 | 182 | 2.0 | 7.0 | 0.00 | 0.02 | 0.00 | 48 | 1011.9 |
| 20260503235504 | 67 | 210 | 5.0 | 6.0 | 0.00 | 0.02 | 0.00 | 46 | 1012.2 |
| 20260503235005 | 67 | 197 | 5.0 | 8.0 | 0.00 | 0.02 | 0.00 | 46 | 1012.2 |
| 20260503234504 | 68 | 147 | 2.0 | 9.0 | 0.00 | 0.02 | 0.00 | 45 | 1012.5 |
| 20260503234004 | 68 | 198 | 2.0 | 8.0 | 0.00 | 0.02 | 0.00 | 44 | 1012.5 |
| 20260503233503 | 68 | 152 | 2.0 | 5.0 | 0.00 | 0.02 | 0.00 | 45 | 1012.5 |
| 20260503233004 | 67 | 275 | 2.0 | 3.0 | 0.00 | 0.02 | 0.00 | 46 | 1012.4 |
| 20260503232503 | 66 | 0 | 0.0 | 2.0 | 0.00 | 0.02 | 0.00 | 50 | 1012.4 |
| 20260503231504 | 66 | 239 | 2.0 | 2.0 | 0.00 | 0.02 | 0.00 | 50 | 1012.3 |
| 20260503231004 | 66 | 239 | 2.0 | 5.0 | 0.00 | 0.02 | 0.00 | 50 | 1012.3 |
| 20260503230504 | 66 | 303 | 3.0 | 5.0 | 0.00 | 0.02 | 0.00 | 49 | 1012.3 |
| 20260503230004 | 66 | 300 | 3.0 | 5.0 | 0.00 | 0.02 | 0.00 | 50 | 1012.6 |
| 20260503225505 | 66 | 321 | 5.0 | 6.0 | 0.00 | 0.02 | 0.00 | 49 | 1012.6 |
| 20260503225004 | 66 | 290 | 5.0 | 8.0 | 0.00 | 0.02 | 0.00 | 49 | 1012.6 |
| 20260503224506 | 66 | 328 | 3.0 | 8.0 | 0.00 | 0.02 | 0.00 | 50 | 1013.1 |
| 20260503224004 | 66 | 301 | 3.0 | 7.0 | 0.00 | 0.02 | 0.00 | 49 | 1013.1 |
| 20260503223505 | 67 | 321 | 5.0 | 8.0 | 0.00 | 0.02 | 0.00 | 50 | 1013.1 |
| 20260503222504 | 67 | 49 | 3.0 | 5.0 | 0.00 | 0.02 | 0.00 | 50 | 1013.4 |
| 20260503222005 | 67 | 49 | 3.0 | 5.0 | 0.00 | 0.02 | 0.00 | 50 | 1013.4 |
| 20260503221503 | 67 | 49 | 3.0 | 5.0 | 0.00 | 0.02 | 0.00 | 50 | 1013.4 |
| 20260503221004 | 67 | 0 | 3.0 | 12.0 | 0.00 | 0.02 | 0.00 | 47 | 1013.4 |
| 20260503220004 | 68 | 320 | 5.0 | 15.0 | 0.00 | 0.02 | 0.00 | 47 | 1013.3 |
| 20260503215004 | 69 | 354 | 5.0 | 10.0 | 0.00 | 0.02 | 0.00 | 43 | 1013.3 |
| 20260503214506 | 70 | 23 | 7.0 | 9.0 | 0.00 | 0.02 | 0.00 | 40 | 1012.8 |
| 20260503214003 | 71 | 61 | 7.0 | 15.0 | 0.00 | 0.02 | 0.00 | 39 | 1012.8 |
| 20260503213505 | 71 | 120 | 7.0 | 12.0 | 0.00 | 0.02 | 0.00 | 39 | 1012.8 |
| 20260503213004 | 72 | 0 | 3.0 | 9.0 | 0.00 | 0.02 | 0.00 | 39 | 1012.6 |
| 20260503212505 | 72 | 156 | 6.0 | 9.0 | 0.00 | 0.02 | 0.00 | 39 | 1012.6 |
| 20260503210506 | 73 | 140 | 5.0 | 9.0 | 0.00 | 0.02 | 0.00 | 38 | 1012.5 |
| 20260503210004 | 74 | 176 | 1.0 | 7.0 | 0.00 | 0.02 | 0.00 | 37 | 1012.6 |
| 20260503205004 | 74 | 192 | 5.0 | 5.0 | 0.00 | 0.02 | 0.00 | 35 | 1012.6 |
| 20260503204503 | 74 | 192 | 5.0 | 9.0 | 0.00 | 0.02 | 0.00 | 35 | 1012.6 |
| 20260503204004 | 74 | 165 | 5.0 | 13.0 | 0.00 | 0.02 | 0.00 | 37 | 1012.6 |
| 20260503203004 | 74 | 62 | 2.0 | 5.0 | 0.00 | 0.02 | 0.00 | 40 | 1012.8 |
| 20260503202004 | 73 | 0 | 0.0 | 5.0 | 0.00 | 0.02 | 0.00 | 38 | 1012.8 |
| 20260503201505 | 73 | 340 | 5.0 | 5.0 | 0.00 | 0.02 | 0.00 | 38 | 1013.1 |
| 20260503201004 | 73 | 340 | 5.0 | 5.0 | 0.00 | 0.02 | 0.00 | 38 | 1013.1 |
| 20260503200506 | 73 | 340 | 5.0 | 7.0 | 0.00 | 0.02 | 0.00 | 38 | 1013.1 |
| 20260503200006 | 73 | 147 | 5.0 | 10.0 | 0.00 | 0.02 | 0.00 | 38 | 1013.3 |
| 20260503195505 | 73 | 158 | 6.0 | 10.0 | 0.00 | 0.02 | 0.00 | 40 | 1013.3 |
| 20260503195004 | 73 | 210 | 6.0 | 9.0 | 0.00 | 0.02 | 0.00 | 39 | 1013.3 |
| 20260503194504 | 73 | 160 | 3.0 | 14.0 | 0.00 | 0.02 | 0.00 | 39 | 1013.4 |
| 20260503194005 | 72 | 148 | 3.0 | 12.0 | 0.00 | 0.02 | 0.00 | 41 | 1013.4 |
| 20260503193506 | 71 | 213 | 2.0 | 12.0 | 0.00 | 0.02 | 0.00 | 41 | 1013.4 |
| 20260503192504 | 71 | 213 | 2.0 | 12.0 | 0.00 | 0.02 | 0.00 | 41 | 1013.5 |